Погода в Шорохово

Россия / Тюменская область     56°39′02″N   65°23′09″E
темп.,
°C
ветер,
м/с
пор.,
м/с
влажн.,
%
обл.,
%
осадки,
мм/ч
давл.,
гПа
погр.,
м
8 марта, пн
пн823:00−10с4894100 2.1 1002423
02:00−12сз4994100 0.2 1004343
05:00−17зсз389576 0.3 1007156
08:00−19з379717 0.0 1007141
11:00−13зюз359126 0.0 1009323
14:00−11юз478968 0.0 1009504
17:00−10ю498884 0.0 1008670
20:00−11ю41194100 0.2 1007625
9 марта, вт
вт923:00−9ю51393100 0.4 1005617
02:00−6юз61489100 0.2 1004820
05:00−8юз5148875 0.3 1005484
08:00−9ююз4129335 0.0 1005385
11:00−4ююз5109467 0.9 1004863
14:00−3юз71393100 0.9 10031150
17:00−3зюз71381100 1.9 10051151
20:00−9зсз3119063 0.1 1009351
10 марта, ср
ср1023:00−13з229340 0.1 101220
02:00−14ю129676 0.0 101220
05:00−14ююв229687 0.0 101225
08:00−13юв2296100 0.0 101080
11:00−9вюв2494100 0.0 1008251
14:00−6в3593100 0.0 1006447
17:00−6в4790100 0.1 1004662
20:00−8всв4995100 0.1 1003460
11 марта, чт
чт1123:00−10св4995100 0.3 1002397
02:00−12св4994100 0.4 1002371
05:00−14ссв4995100 0.8 1003360
08:00−16ссв4796100 0.5 1004322
11:00−15ссв4694100 0.9 1005364
14:00−14с4693100 0.4 1006446
17:00−15с4793100 0.8 1006589
20:00−17ссз4994100 0.4 1008584
12 марта, пт
пт1223:00−20ссз4995100 0.5 1010475
02:00−22ссз4895100 0.1 1012400
05:00−27сз4109599 0.1 1014253
08:00−28сз489521 0.0 1017234
11:00−22сз369210 0.0 1018343
14:00−17зсз24811 0.0 1020719
17:00−16зюз358651 0.0 1020749
20:00−21юз339653 0.0 102176